[Iaude] MPEC P37: 2024 OU2 [a=1.78,e=0.31,i=6.8,H=23.0]

mpec at cfa.harvard.edu mpec at cfa.harvard.edu
Fri Aug 2 19:37:54 EDT 2024


M.P.E.C. 2024-P37                                Issued 2024 August 2, 23:36 UT

     The Minor Planet Electronic Circulars contain information on unusual
         minor planets, routine data on comets and natural satellites,
         and occasional editorial announcements.  They are published
    on behalf of Division F of the International Astronomical Union by the
          Minor Planet Center, Smithsonian Astrophysical Observatory,
                          Cambridge, MA 02138, U.S.A.
			  
             Prepared using the Tamkin Foundation Computer Network

                              MPC at CFA.HARVARD.EDU
            URL https://www.minorplanetcenter.net/    ISSN 1523-6714

                                    2024 OU2                                    


Observations:
     K24O02U  C2024 07 27.44089321 03 55.722-17 53 43.49         21.27GVEP037F51
     K24O02U  C2024 07 27.45274221 03 55.783-17 53 58.21         21.30GVEP037F51
     K24O02U  C2024 07 27.46457421 03 55.825-17 54 13.97         21.72GVEP037F51
     K24O02U  C2024 07 27.47491121 03 55.859-17 54 26.99         21.68GVEP037F51
     K24O02U* C2024 07 30.49543121 04 38.384-19 01 08.80         21.96wXEP037F51
     K24O02U  C2024 07 30.50534721 04 38.395-19 01 22.02         21.54wXEP037F51
     K24O02U  C2024 07 30.51526621 04 38.436-19 01 35.67         21.79wXEP037F51
     K24O02U 3C2024 08 02.51517221 05 16.401-20 12 06.24         21.28GVEP037T14
     K24O02U 3C2024 08 02.51615121 05 16.401-20 12 07.65         21.28GVEP037T14
     K24O02U 3C2024 08 02.51712821 05 16.401-20 12 09.05         21.29GVEP037T14
     K24O02U KC2024 08 02.93506321 05 22.790-20 22 22.48         19.3 GXEP037M57

Observer details:
F51 Pan-STARRS 1, Haleakala.  Observers J. Herman, T. Lowe, P. Minguez, A.
    Schultz, I. Smith.  Measurers K. Chambers, T. de Boer, J. Fairlamb, H.
    Gao, M. Huber, C.-C. Lin, E. Magnier, Y. Ramanjooloo, R. Wainscoat, R.
    Weryk.  1.8-m Ritchey-Chretien + CCD.
M57 Wide-field Mufara Telescope, Isnello.  Observer A. Nastasi.  1.00-m f/2.1
    reflector + CCD.
T14 Canada-France-Hawaii Telescope, Maunakea.  Observers R. Wainscoat, A.
    Acohido, H. Flewelling.  Measurers R. Weryk, R. Wainscoat.  3.6-m f/4.1
    reflector + CCD.

Orbital elements:
2024 OU2                                                 Earth MOID = 0.2399 AU
Epoch 2024 Oct. 17.0 TT = JDT 2460600.5                 MPC                     
M   8.42617              (2000.0)            P               Q                  
n   0.41529215     Peri.  230.22626     +0.99125092     +0.08894303             
a   1.7792361      Node   124.45791     -0.05164182     +0.94130382             
e   0.3101200      Incl.    6.79258     -0.12146903     +0.32563208             
P   2.37           H   23.07          G   0.15           U   8                  
Residuals in seconds of arc
240727 F51  0.1-  0.1-    240730 F51  0.0   0.0     240802 T14  0.0   0.0
240727 F51  0.1+  0.4+    240730 F51  0.1-  0.2+    240802 T14  0.0   0.0
240727 F51  0.0   0.2-    240730 F51  0.2+  0.1-    240802 M57  0.3+  0.4+
240727 F51  0.0   0.1-    240802 T14  0.0   0.0

Ephemeris:
2024 OU2                 a,e,i = 1.78, 0.31, 7                   q = 1.2275
Date    TT    R. A. (2000) Decl.     Delta      r    Elong.  Phase     V
2024 07 03    20 52 27.8 -12 08 01   0.4464  1.4172   148.7    21.9    23.1
...
2024 07 18    21 00 51.7 -14 58 03   0.3596  1.3629   162.1    13.2    22.3
...
2024 07 26    21 03 32.7 -17 23 20   0.3247  1.3365   169.9     7.7    21.8
...
2024 08 01    21 04 58.4 -19 35 42   0.3039  1.3181   175.1     3.8    21.4
2024 08 02    21 05 10.9 -19 59 25   0.3009  1.3151   175.6     3.4    21.4
2024 08 03    21 05 23.2 -20 23 32   0.2981  1.3122   175.9     3.2    21.3
...
2024 08 09    21 06 38.7 -22 54 45   0.2836  1.2956   172.6     5.8    21.4
...
2024 08 17    21 09 01.2 -26 22 28   0.2714  1.2759   164.4    12.3    21.5
...
2024 09 01    21 18 53.6 -32 01 04   0.2675  1.2472   149.5    24.2    21.8

A. U. Tomatic                (C) Copyright 2024 MPC           M.P.E.C. 2024-P37





More information about the Iaude mailing list